| time (UTC) | temp F | wind direction | speed MPH | gust MPH | rain 1hr in | rain 24hr in | rain mn in | humidity % | barometer mb |
| 20260510115102 | 55 | 33 | 9.0 | 18.0 | 0.00 | 0.00 | 0.00 | 67 | 1016.0 |
| 20260510114201 | 55 | 30 | 9.0 | 18.0 | 0.00 | 0.00 | 0.00 | 67 | 1015.9 |
| 20260510113300 | 54 | 29 | 10.0 | 20.0 | 0.00 | 0.00 | 0.00 | 68 | 1016.0 |
| 20260510112609 | 54 | 42 | 10.0 | 18.0 | 0.00 | 0.00 | 0.00 | 69 | 1016.1 |
| 20260510111503 | 54 | 43 | 10.0 | 19.0 | 0.00 | 0.00 | 0.00 | 70 | 1016.1 |
| 20260510110602 | 54 | 35 | 10.0 | 20.0 | 0.00 | 0.00 | 0.00 | 70 | 1016.1 |
| 20260510105700 | 54 | 45 | 10.0 | 17.0 | 0.00 | 0.00 | 0.00 | 69 | 1016.2 |
| 20260510104801 | 54 | 46 | 9.0 | 18.0 | 0.00 | 0.00 | 0.00 | 69 | 1016.3 |
| 20260510103901 | 55 | 49 | 10.0 | 17.0 | 0.00 | 0.00 | 0.00 | 69 | 1016.3 |
| 20260510103214 | 55 | 50 | 9.0 | 16.0 | 0.00 | 0.00 | 0.00 | 70 | 1016.3 |
| 20260510102100 | 55 | 50 | 8.0 | 15.0 | 0.00 | 0.00 | 0.00 | 71 | 1016.5 |
| 20260510101200 | 54 | 49 | 9.0 | 17.0 | 0.00 | 0.00 | 0.00 | 71 | 1016.5 |
| 20260510100303 | 54 | 57 | 9.0 | 20.0 | 0.00 | 0.00 | 0.00 | 71 | 1016.4 |
| 20260510095406 | 55 | 61 | 11.0 | 19.0 | 0.00 | 0.00 | 0.00 | 69 | 1016.6 |
| 20260510094501 | 55 | 53 | 8.0 | 15.0 | 0.00 | 0.00 | 0.00 | 70 | 1016.5 |
| 20260510093600 | 54 | 47 | 10.0 | 18.0 | 0.00 | 0.00 | 0.00 | 70 | 1016.5 |
| 20260510092700 | 54 | 48 | 11.0 | 18.0 | 0.00 | 0.00 | 0.00 | 70 | 1016.6 |
| 20260510091801 | 54 | 48 | 10.0 | 17.0 | 0.00 | 0.00 | 0.00 | 71 | 1016.8 |
| 20260510090901 | 54 | 46 | 10.0 | 18.0 | 0.00 | 0.00 | 0.00 | 73 | 1016.7 |
| 20260510090000 | 54 | 47 | 10.0 | 18.0 | 0.00 | 0.00 | 0.00 | 73 | 1016.7 |
| 20260510085103 | 54 | 48 | 10.0 | 21.0 | 0.00 | 0.00 | 0.00 | 73 | 1016.7 |
| 20260510084200 | 54 | 47 | 10.0 | 16.0 | 0.00 | 0.00 | 0.00 | 72 | 1016.7 |
| 20260510083514 | 54 | 52 | 10.0 | 19.0 | 0.00 | 0.00 | 0.00 | 72 | 1016.7 |
| 20260510082401 | 55 | 48 | 9.0 | 19.0 | 0.00 | 0.00 | 0.00 | 73 | 1016.7 |
| 20260510081714 | 55 | 40 | 9.0 | 19.0 | 0.00 | 0.00 | 0.00 | 73 | 1016.7 |
| 20260510080600 | 55 | 42 | 10.0 | 21.0 | 0.00 | 0.00 | 0.00 | 74 | 1016.6 |
| 20260510075913 | 55 | 46 | 10.0 | 21.0 | 0.00 | 0.00 | 0.00 | 75 | 1016.6 |
| 20260510074801 | 55 | 42 | 10.0 | 18.0 | 0.00 | 0.00 | 0.00 | 75 | 1016.5 |
| 20260510073901 | 54 | 43 | 10.0 | 18.0 | 0.00 | 0.00 | 0.00 | 75 | 1016.6 |
| 20260510073000 | 54 | 37 | 9.0 | 17.0 | 0.00 | 0.00 | 0.00 | 76 | 1016.6 |
| 20260510072100 | 54 | 43 | 8.0 | 17.0 | 0.00 | 0.00 | 0.00 | 79 | 1016.7 |
| 20260510071200 | 54 | 52 | 10.0 | 17.0 | 0.00 | 0.00 | 0.00 | 79 | 1016.9 |
| 20260510070512 | 54 | 46 | 11.0 | 19.0 | 0.00 | 0.00 | 0.00 | 79 | 1016.7 |
| 20260510065403 | 53 | 38 | 9.0 | 16.0 | 0.00 | 0.00 | 0.00 | 80 | 1016.6 |
| 20260510064503 | 53 | 44 | 8.0 | 16.0 | 0.00 | 0.00 | 0.00 | 82 | 1016.7 |
| 20260510063600 | 53 | 48 | 7.0 | 13.0 | 0.00 | 0.00 | 0.00 | 83 | 1016.6 |
| 20260510062700 | 53 | 47 | 8.0 | 17.0 | 0.00 | 0.00 | 0.00 | 83 | 1016.4 |
| 20260510061803 | 53 | 45 | 8.0 | 15.0 | 0.00 | 0.00 | 0.00 | 83 | 1016.3 |
| 20260510061111 | 52 | 45 | 8.0 | 15.0 | 0.00 | 0.00 | 0.00 | 84 | 1016.4 |
| 20260510060000 | 51 | 39 | 8.0 | 15.0 | 0.00 | 0.00 | 0.00 | 86 | 1016.4 |
| 20260510055102 | 50 | 40 | 8.0 | 17.0 | 0.00 | 0.00 | 0.00 | 86 | 1016.3 |
| 20260510054200 | 50 | 38 | 8.0 | 14.0 | 0.00 | 0.00 | 0.00 | 87 | 1016.2 |
| 20260510053511 | 50 | 40 | 6.0 | 14.0 | 0.00 | 0.00 | 0.00 | 87 | 1016.2 |
| 20260510052401 | 50 | 38 | 7.0 | 13.0 | 0.00 | 0.00 | 0.00 | 88 | 1016.3 |
| 20260510051500 | 50 | 37 | 7.0 | 14.0 | 0.00 | 0.00 | 0.00 | 88 | 1016.2 |
| 20260510050601 | 50 | 37 | 7.0 | 14.0 | 0.00 | 0.00 | 0.00 | 88 | 1016.3 |
| 20260510045701 | 50 | 13 | 6.0 | 13.0 | 0.00 | 0.00 | 0.00 | 89 | 1016.2 |
| 20260510045012 | 50 | 360 | 6.0 | 15.0 | 0.00 | 0.00 | 0.00 | 90 | 1016.4 |
| 20260510043900 | 49 | 360 | 6.0 | 13.0 | 0.00 | 0.00 | 0.00 | 90 | 1016.4 |
| 20260510043212 | 49 | 360 | 5.0 | 13.0 | 0.00 | 0.00 | 0.00 | 91 | 1016.5 |
| 20260510042101 | 49 | 360 | 5.0 | 10.0 | 0.00 | 0.00 | 0.00 | 90 | 1016.6 |
| 20260510041201 | 49 | 360 | 4.0 | 11.0 | 0.00 | 0.00 | 0.00 | 90 | 1016.7 |
| 20260510040300 | 49 | 360 | 4.0 | 11.0 | 0.00 | 0.01 | 0.00 | 90 | 1016.7 |
| 20260510035401 | 49 | 360 | 5.0 | 11.0 | 0.00 | 0.01 | 0.00 | 90 | 1016.7 |
| 20260510034500 | 49 | 360 | 5.0 | 13.0 | 0.00 | 0.01 | 0.00 | 91 | 1016.6 |
| 20260510033811 | 49 | 360 | 7.0 | 15.0 | 0.00 | 0.01 | 0.00 | 91 | 1016.6 |
| 20260510032702 | 49 | 360 | 5.0 | 15.0 | 0.00 | 0.01 | 0.00 | 91 | 1016.7 |
| 20260510032016 | 49 | 360 | 7.0 | 16.0 | 0.00 | 0.01 | 0.00 | 92 | 1016.6 |
| 20260510030901 | 49 | 360 | 6.0 | 15.0 | 0.00 | 0.01 | 0.00 | 92 | 1016.6 |
| 20260510030000 | 49 | 360 | 6.0 | 12.0 | 0.00 | 0.01 | 0.00 | 92 | 1016.6 |
| 20260510025101 | 49 | 360 | 5.0 | 12.0 | 0.00 | 0.01 | 0.00 | 92 | 1016.7 |
| 20260510024201 | 49 | 360 | 4.0 | 10.0 | 0.00 | 0.01 | 0.00 | 91 | 1016.8 |
| 20260510023301 | 49 | 360 | 5.0 | 13.0 | 0.00 | 0.01 | 0.00 | 92 | 1016.9 |
| 20260510022400 | 49 | 360 | 6.0 | 14.0 | 0.00 | 0.01 | 0.00 | 92 | 1016.9 |
| 20260510021501 | 49 | 360 | 5.0 | 11.0 | 0.00 | 0.01 | 0.00 | 92 | 1017.1 |
| 20260510020600 | 49 | 360 | 4.0 | 10.0 | 0.00 | 0.01 | 0.00 | 92 | 1017.1 |
| 20260510015912 | 49 | 360 | 5.0 | 13.0 | 0.00 | 0.01 | 0.00 | 93 | 1017.1 |
| 20260510014801 | 49 | 360 | 5.0 | 10.0 | 0.00 | 0.01 | 0.00 | 93 | 1017.0 |
| 20260510013901 | 49 | 360 | 4.0 | 10.0 | 0.00 | 0.01 | 0.00 | 93 | 1016.9 |
| 20260510013001 | 49 | 360 | 4.0 | 11.0 | 0.00 | 0.01 | 0.00 | 93 | 1016.8 |
| 20260510012103 | 49 | 360 | 4.0 | 9.0 | 0.00 | 0.01 | 0.00 | 92 | 1016.7 |
| 20260510011200 | 49 | 360 | 4.0 | 10.0 | 0.00 | 0.01 | 0.00 | 93 | 1016.9 |
| 20260510010301 | 49 | 360 | 4.0 | 9.0 | 0.00 | 0.01 | 0.00 | 92 | 1016.8 |
| 20260510005400 | 50 | 360 | 4.0 | 9.0 | 0.00 | 0.01 | 0.00 | 92 | 1016.9 |
| 20260510004501 | 50 | 360 | 4.0 | 8.0 | 0.00 | 0.01 | 0.00 | 92 | 1017.0 |
| 20260510003601 | 50 | 360 | 3.0 | 8.0 | 0.00 | 0.01 | 0.00 | 92 | 1017.1 |
| 20260510002700 | 50 | 360 | 3.0 | 6.0 | 0.00 | 0.01 | 0.00 | 92 | 1017.2 |
| 20260510001801 | 50 | 360 | 3.0 | 10.0 | 0.00 | 0.01 | 0.00 | 92 | 1017.2 |
| 20260510000900 | 50 | 360 | 4.0 | 8.0 | 0.00 | 0.01 | 0.00 | 92 | 1017.2 |
| 20260510000001 | 50 | 360 | 3.0 | 8.0 | 0.00 | 0.01 | 0.00 | 92 | 1017.2 |
| 20260509235101 | 50 | 360 | 4.0 | 9.0 | 0.00 | 0.01 | 0.01 | 92 | 1017.2 |
| 20260509234412 | 50 | 360 | 4.0 | 10.0 | 0.00 | 0.01 | 0.01 | 92 | 1017.1 |
| 20260509233300 | 50 | 360 | 4.0 | 9.0 | 0.00 | 0.01 | 0.01 | 91 | 1017.2 |
| 20260509232400 | 50 | 360 | 4.0 | 10.0 | 0.00 | 0.01 | 0.01 | 91 | 1017.1 |
| 20260509231501 | 50 | 360 | 4.0 | 8.0 | 0.00 | 0.01 | 0.01 | 90 | 1017.1 |
| 20260509230601 | 50 | 360 | 4.0 | 9.0 | 0.00 | 0.01 | 0.01 | 90 | 1017.2 |
| 20260509225701 | 50 | 360 | 4.0 | 10.0 | 0.00 | 0.01 | 0.01 | 89 | 1017.2 |
| 20260509224805 | 50 | 360 | 3.0 | 6.0 | 0.00 | 0.01 | 0.01 | 89 | 1017.3 |
| 20260509223900 | 50 | 360 | 2.0 | 4.0 | 0.00 | 0.01 | 0.01 | 88 | 1017.4 |
| 20260509223000 | 51 | 360 | 2.0 | 4.0 | 0.00 | 0.01 | 0.01 | 88 | 1017.4 |
| 20260509222313 | 51 | 360 | 2.0 | 4.0 | 0.00 | 0.01 | 0.01 | 88 | 1017.3 |
| 20260509221201 | 51 | 360 | 4.0 | 6.0 | 0.00 | 0.01 | 0.01 | 87 | 1017.1 |
| 20260509220513 | 52 | 360 | 4.0 | 6.0 | 0.00 | 0.01 | 0.01 | 87 | 1017.1 |
| 20260509215403 | 52 | 29 | 3.0 | 6.0 | 0.00 | 0.01 | 0.01 | 87 | 1017.1 |
| 20260509214500 | 52 | 31 | 3.0 | 7.0 | 0.00 | 0.01 | 0.01 | 86 | 1017.2 |
| 20260509213600 | 52 | 40 | 3.0 | 5.0 | 0.00 | 0.01 | 0.01 | 86 | 1017.1 |
| 20260509212701 | 52 | 45 | 4.0 | 9.0 | 0.00 | 0.01 | 0.01 | 86 | 1017.2 |
| 20260509211801 | 52 | 50 | 3.0 | 8.0 | 0.00 | 0.01 | 0.01 | 85 | 1017.2 |
| 20260509210900 | 53 | 38 | 3.0 | 6.0 | 0.00 | 0.01 | 0.01 | 84 | 1017.1 |
| 20260509210001 | 53 | 49 | 3.0 | 5.0 | 0.00 | 0.01 | 0.01 | 83 | 1017.0 |
| 20260509205101 | 53 | 47 | 3.0 | 8.0 | 0.00 | 0.01 | 0.01 | 82 | 1016.9 |
| 20260509204200 | 53 | 47 | 4.0 | 9.0 | 0.00 | 0.01 | 0.01 | 82 | 1016.9 |
| 20260509203511 | 54 | 45 | 4.0 | 9.0 | 0.00 | 0.01 | 0.01 | 81 | 1016.9 |
| 20260509202400 | 54 | 45 | 4.0 | 8.0 | 0.00 | 0.01 | 0.01 | 78 | 1016.7 |
| 20260509201505 | 54 | 50 | 4.0 | 8.0 | 0.00 | 0.01 | 0.01 | 76 | 1016.7 |
| 20260509200601 | 54 | 51 | 4.0 | 9.0 | 0.00 | 0.01 | 0.01 | 75 | 1016.8 |
| 20260509195703 | 55 | 50 | 4.0 | 10.0 | 0.00 | 0.01 | 0.01 | 74 | 1016.7 |
| 20260509194801 | 56 | 48 | 4.0 | 9.0 | 0.00 | 0.01 | 0.01 | 73 | 1016.8 |
| 20260509193900 | 56 | 49 | 4.0 | 8.0 | 0.00 | 0.01 | 0.01 | 71 | 1016.7 |
| 20260509193000 | 57 | 45 | 4.0 | 7.0 | 0.00 | 0.01 | 0.01 | 68 | 1016.7 |
| 20260509192100 | 57 | 52 | 3.0 | 9.0 | 0.00 | 0.01 | 0.01 | 65 | 1016.6 |
| 20260509191413 | 58 | 61 | 3.0 | 9.0 | 0.00 | 0.01 | 0.01 | 64 | 1016.5 |
| 20260509190301 | 58 | 54 | 5.0 | 9.0 | 0.00 | 0.01 | 0.01 | 62 | 1016.5 |
| 20260509185400 | 59 | 59 | 5.0 | 10.0 | 0.00 | 0.01 | 0.01 | 60 | 1016.5 |
| 20260509184500 | 60 | 59 | 4.0 | 9.0 | 0.00 | 0.01 | 0.01 | 58 | 1016.3 |
| 20260509183601 | 61 | 61 | 5.0 | 10.0 | 0.00 | 0.01 | 0.01 | 57 | 1016.3 |
| 20260509182700 | 62 | 58 | 6.0 | 11.0 | 0.00 | 0.01 | 0.01 | 54 | 1016.2 |
| 20260509181803 | 63 | 60 | 5.0 | 12.0 | 0.00 | 0.01 | 0.01 | 53 | 1016.0 |
| 20260509180900 | 63 | 59 | 5.0 | 11.0 | 0.00 | 0.01 | 0.01 | 56 | 1016.0 |
| 20260509180211 | 64 | 68 | 5.0 | 10.0 | 0.00 | 0.01 | 0.01 | 56 | 1016.0 |
| 20260509175100 | 64 | 83 | 5.0 | 10.0 | 0.00 | 0.01 | 0.01 | 61 | 1016.2 |
| 20260509174200 | 65 | 85 | 6.0 | 10.0 | 0.00 | 0.01 | 0.01 | 60 | 1016.3 |
| 20260509173301 | 65 | 88 | 6.0 | 10.0 | 0.00 | 0.01 | 0.01 | 59 | 1016.3 |
| 20260509172400 | 65 | 92 | 6.0 | 11.0 | 0.00 | 0.01 | 0.01 | 56 | 1016.4 |
| 20260509171502 | 66 | 90 | 6.0 | 11.0 | 0.00 | 0.01 | 0.01 | 56 | 1016.5 |
| 20260509170603 | 66 | 92 | 6.0 | 10.0 | 0.00 | 0.01 | 0.01 | 57 | 1016.5 |
| 20260509165701 | 67 | 97 | 5.0 | 10.0 | 0.00 | 0.01 | 0.01 | 56 | 1016.5 |
| 20260509164801 | 67 | 106 | 3.0 | 10.0 | 0.00 | 0.01 | 0.01 | 56 | 1016.6 |
| 20260509163901 | 67 | 95 | 4.0 | 10.0 | 0.00 | 0.01 | 0.01 | 56 | 1016.6 |
| 20260509163001 | 67 | 93 | 5.0 | 11.0 | 0.00 | 0.01 | 0.01 | 53 | 1016.7 |
| 20260509162101 | 67 | 95 | 7.0 | 12.0 | 0.00 | 0.01 | 0.01 | 53 | 1016.5 |
| 20260509161409 | 67 | 94 | 7.0 | 15.0 | 0.00 | 0.01 | 0.01 | 46 | 1016.6 |
| 20260509160300 | 67 | 89 | 7.0 | 12.0 | 0.00 | 0.01 | 0.01 | 44 | 1016.6 |
| 20260509155400 | 67 | 95 | 7.0 | 13.0 | 0.00 | 0.01 | 0.01 | 43 | 1016.4 |
| 20260509154711 | 67 | 94 | 8.0 | 16.0 | 0.00 | 0.01 | 0.01 | 45 | 1016.3 |
| 20260509153814 | 67 | 91 | 7.0 | 13.0 | 0.00 | 0.01 | 0.01 | 44 | 1016.3 |
| 20260509152911 | 67 | 82 | 6.0 | 14.0 | 0.00 | 0.01 | 0.01 | 45 | 1016.3 |
| 20260509152013 | 67 | 79 | 6.0 | 12.0 | 0.00 | 0.01 | 0.01 | 41 | 1016.1 |
| 20260509151111 | 67 | 78 | 7.0 | 13.0 | 0.00 | 0.01 | 0.01 | 39 | 1016.1 |
| 20260509150001 | 67 | 76 | 6.0 | 13.0 | 0.00 | 0.01 | 0.01 | 41 | 1015.9 |
| 20260509145100 | 67 | 78 | 7.0 | 15.0 | 0.00 | 0.01 | 0.01 | 39 | 1016.1 |
| 20260509144203 | 67 | 78 | 7.0 | 13.0 | 0.00 | 0.01 | 0.01 | 40 | 1016.2 |
| 20260509143301 | 67 | 83 | 8.0 | 16.0 | 0.00 | 0.01 | 0.01 | 44 | 1016.3 |
| 20260509142403 | 67 | 83 | 8.0 | 15.0 | 0.00 | 0.01 | 0.01 | 43 | 1016.3 |
| 20260509141710 | 67 | 77 | 8.0 | 15.0 | 0.00 | 0.01 | 0.01 | 46 | 1016.4 |
| 20260509140601 | 67 | 79 | 8.0 | 14.0 | 0.00 | 0.01 | 0.01 | 46 | 1016.4 |
| 20260509135700 | 68 | 90 | 8.0 | 15.0 | 0.00 | 0.01 | 0.01 | 43 | 1016.6 |
| 20260509135012 | 68 | 94 | 8.0 | 16.0 | 0.00 | 0.01 | 0.01 | 44 | 1016.6 |
| 20260509133901 | 68 | 94 | 8.0 | 15.0 | 0.00 | 0.01 | 0.01 | 44 | 1016.8 |
| 20260509133000 | 69 | 89 | 8.0 | 14.0 | 0.00 | 0.01 | 0.01 | 42 | 1016.8 |
| 20260509132314 | 68 | 83 | 8.0 | 14.0 | 0.00 | 0.01 | 0.01 | 43 | 1016.8 |
| 20260509131200 | 68 | 91 | 9.0 | 15.0 | 0.00 | 0.01 | 0.01 | 42 | 1016.9 |
| 20260509130301 | 68 | 89 | 9.0 | 16.0 | 0.00 | 0.01 | 0.01 | 42 | 1016.9 |
| 20260509125403 | 68 | 91 | 9.0 | 16.0 | 0.00 | 0.01 | 0.01 | 42 | 1016.9 |
| 20260509124501 | 69 | 93 | 7.0 | 14.0 | 0.00 | 0.01 | 0.01 | 42 | 1017.0 |
| 20260509123601 | 69 | 88 | 10.0 | 15.0 | 0.00 | 0.01 | 0.01 | 41 | 1017.1 |
| 20260509122703 | 69 | 92 | 8.0 | 14.0 | 0.00 | 0.01 | 0.01 | 42 | 1017.1 |
| 20260509121800 | 69 | 93 | 7.0 | 15.0 | 0.00 | 0.01 | 0.01 | 42 | 1017.2 |
| 20260509120900 | 69 | 87 | 7.0 | 16.0 | 0.00 | 0.01 | 0.01 | 43 | 1017.3 |
| 20260509120000 | 69 | 90 | 7.0 | 15.0 | 0.00 | 0.01 | 0.01 | 41 | 1017.3 |